You are here:

home

Questo sito é stato creato esclusivamente per valorizzare il lavoro svolto dall' intero
155° Gruppo E.T.S. del' Aeronautica Militare e non ha nessun fine commerciale ne di lucro. 
Pertanto, l' utilizzo delle foto é consentito solo per uso PRIVATO.

 

 
In alto

LIMS - Piacenza, San Damiano

[source: ADDS]
METAR
LIMS 010855Z 09004KT CAVOK 27/19 Q1012 RMK FEW FEW120 VIS MIN 9999 WIND THR30 07003KT BLU =
TAF
TAF LIMS 010800Z 0109/0118 VRB05KT CAVOK BECMG 0113/0115 22005KT 9999 SCT080 TEMPO 0116/0118 24011KT =
In alto
WEB MASTER
Paolo "paolopaso" Pasotti
______________________________________
Last Update: 25/02/2011
_____________________________________________________________________________________________________________
© 2010 / 2011 - Tutti i diritti riservati
 
 
In alto